Weather Roundup
Issued by NWS Springfield, MO

Home | Current Version | Previous Version | Text Only | Print | Product List | Glossary On
Versions: 1 2 3 4 5 6 7 8 9 10 11 12 13 14 15 16 17 18 19 20 21 22 23 24 25 26 27 28 29 30 31 32 33 34 35 36 37 38 39 40 41 42 43 44 45 46 47 48 49 50
000
NZUS99 KSGF 230607
HRRSGF

HOURLY WEATHER
NATIONAL WEATHER SERVICE SPRINGFIELD MO
100 AM CDT MON OCT 23 2017

......SGF CWA......

CITY           SKY/WX    TMP DP  RH WIND       PRES   REMARKS
SPRINGFIELD    CLOUDY    50  48  93 SW3       30.06F
6HR MIN TEMP:  50; 6HR MAX TEMP:  52;

JOPLIN         CLEAR     44  44 100 MISG      30.08F
6HR MIN TEMP:  44; 6HR MAX TEMP:  56;

WEST PLAINS    CLOUDY    50  48  93 W7        30.04F
6HR MIN TEMP:  50; 6HR MAX TEMP:  52; 6HR PCP:  0.12;

ROLLA          MOCLDY    50  50 100 SW7       30.03S
6HR MIN TEMP:  49; 6HR MAX TEMP:  50; 6HR PCP:  0.06;

OSAGE BEACH    PTCLDY    49  49 100 CALM      30.05F
BRANSON        CLOUDY    48  46  93 CALM      30.08S

......SURROUNDING SGF CWA......

CITY           SKY/WX    TMP DP  RH WIND       PRES   REMARKS
CHANUTE        CLEAR     47  39  74 SW7       30.07F
PARSONS        CLEAR     43  41  93 CALM      30.09S
COFFEYVILLE    CLEAR     45  43  93 CALM      30.08S
EMPORIA        CLEAR     44  37  76 S8        30.04F
GROVE OK       CLEAR     43  43 100 CALM      30.10F
ROGERS AR      CLEAR     44  42  93 CALM      30.10S
SILOAM SPRINGS CLEAR     39  39 100 CALM      30.10F FOG
HARRISON AR    CLOUDY    50  48  93 W5        30.07F
NEAR YELLVILLE MOCLDY    49  48  97 CALM      30.07F

......KANSAS AND MISSOURI......

CITY           SKY/WX    TMP DP  RH WIND       PRES   REMARKS
KANSAS CTY INT CLEAR     43  39  86 S9        30.03F
DOWNTOWN KC    CLEAR     48  42  80 SW8       30.04S
COLUMBIA       CLOUDY    50  50 100 W3        30.03F
SEDALIA        PTCLDY    48  48 100 SW7       30.06F
ST JOSEPH      CLEAR     45  42  89 S6        30.01F
ST LOUIS       LGT RAIN  52  51  97 NW10      29.98F
SPIRIT OF STL  LGT RAIN  52  51  97 NW9       29.99F
KIRKSVILLE     CLOUDY    45  45 100 CALM      30.05R
WICHITA        PTCLDY    47  42  83 S6        30.06F
TOPEKA         CLEAR     45  41  86 CALM      30.02F
OLATHE         CLEAR     45  40  82 S6        30.04F

......TENNESSEE......

CITY           SKY/WX    TMP DP  RH WIND       PRES   REMARKS
MEMPHIS        DRIZZLE   57  56  96 NW12      29.98F
NASHVILLE      LGT RAIN  71  63  75 S16       29.91F

......ARKANSAS.......

CITY           SKY/WX    TMP DP  RH WIND       PRES   REMARKS
FAYETTEVILLE   FOG       40  40 100 CALM      30.10S VSB 1/4
FT SMITH       CLEAR     47  45  93 CALM      30.10S
LITTLE ROCK    CLOUDY    53  48  83 NW5       30.06F

......OKLAHOMA.......

CITY           SKY/WX    TMP DP  RH WIND       PRES   REMARKS
TULSA          CLEAR     50  46  86 CALM      30.08F
PONCA CITY     CLEAR     51  41  68 S3        30.08F
MCALESTER      PTCLDY    46  43  89 CALM      30.12S
OKLAHOMA CITY  PTCLDY    46  41  82 S5        30.11F

......IOWA............

CITY           SKY/WX    TMP DP  RH WIND       PRES   REMARKS
DES MOINES     CLEAR     47  41  80 S9        29.98F
QUAD CITIES    CLOUDY    50  48  93 CALM      30.01F

......ILLINOIS........

CITY           SKY/WX    TMP DP  RH WIND       PRES   REMARKS
QUINCY         CLOUDY    50  49  96 S3        30.03F
CHICAGO        LGT RAIN  51  49  92 N9        29.98F




USA.gov is the U.S. government's official web portal to all federal, state and local government web resources and services.